Home   Weather   Surgut   Past weeks

Flag for Russia Past Weather in Surgut, Russia — Yesterday and Last 2 Weeks

Now
0 °F

Scattered clouds.


Feels Like: -12 °F
Forecast: 5 / 11 °F
Wind: 6 mph from South

Location: Surgut Airport

Current Time: Jan 19, 2017 at 9:38:47 am

Latest Report: Jan 19, 2017 at 9:00 am


Visibility: 4 mi

Pressure: 30.24 "Hg

Humidity: 84%

Dew Point: -4 °F

Location of SurgutLocation

Past Weather in Surgut — Graph

°F

Surgut Temperature Yesterday

Maximum temperature yesterday: 12 °F (at 11:30 am)
Minimum temperature yesterday: 1 °F (at 5:30 pm)
Average temperature yesterday: 8 °F

High & Low Weather Summary for the Past Weeks

 TemperatureHumidityPressure
High12 °F (Jan 16, 3:30 am)100% (Jan 18, 3:30 am)30.77 "Hg (Jan 18, 3:30 am)
Low-47 °F (Jan 6, 7:00 am)56% (Jan 6, 10:00 am)29.42 "Hg (Jan 4, 8:00 am)
Average-16 °F77%30.22 "Hg
* Reported Jan 4 8:00 am — Jan 19 8:30 am, Surgut, Weather by CustomWeather, © 2017

Note: Actual official high and low records may vary slightly from our data, if they occured in-between our weather recording intervals... More about our weather records

Advertising

Surgut Weather History for the Previous 24 Hours

Scroll right to see more
 ConditionsComfort  
Time TempWeatherWind HumidityBarometerVisibility
8:30 am
Thu, Jan 19
0 °FLight snow. Ice fog.3 mph84%30.24 "Hg3 mi
8:00 am0 °FPassing clouds.3 mph84%30.24 "Hg4 mi
7:30 am-2 °FPassing clouds.3 mph92%30.27 "Hg4 mi
7:00 am-2 °FLight snow. Ice fog.3 mph92%30.27 "Hg3 mi
6:30 am0 °FPassing clouds.3 mph84%30.27 "Hg4 mi
6:00 am0 °FPassing clouds.3 mph84%30.27 "Hg4 mi
5:30 am0 °FPassing clouds.3 mph92%30.30 "Hg4 mi
5:00 am1 °FPassing clouds.3 mph85%30.30 "Hg4 mi
4:30 am3 °FLight snow. Passing clouds.3 mph85%30.30 "Hg4 mi
4:00 am3 °FLight snow. Passing clouds.3 mph92%30.30 "Hg4 mi
3:30 am3 °FPassing clouds.1 mph100%30.33 "Hg4 mi
3:00 am5 °FSleet. Overcast.3 mph92%30.33 "Hg1 mi
2:30 am3 °FIce fog.1 mph92%30.33 "Hg3 mi
2:00 am3 °FPassing clouds.3 mph92%30.33 "Hg4 mi
1:30 am3 °FPassing clouds.3 mph92%30.33 "Hg4 mi
1:00 am5 °FPassing clouds.1 mph92%30.36 "Hg4 mi
12:30 am3 °FPartly cloudy.1 mph100%30.36 "Hg4 mi
12:00 am5 °FPassing clouds.No wind92%30.36 "Hg4 mi
11:30 pm
Wed, Jan 18
5 °FPassing clouds.1 mph92%30.36 "Hg4 mi
11:00 pm3 °FPassing clouds.1 mph92%30.36 "Hg4 mi
10:30 pm1 °FPassing clouds.1 mph92%30.39 "Hg4 mi
10:00 pm1 °FPassing clouds.3 mph92%30.39 "Hg4 mi
9:30 pm1 °FSleet. Overcast.3 mph92%30.36 "Hg1 mi
9:00 pm1 °FIce fog.3 mph92%30.39 "Hg1 mi
8:30 pm1 °FPassing clouds.1 mph92%30.39 "Hg4 mi
8:00 pm3 °FIce fog.1 mph92%30.39 "Hg3 mi
7:30 pm3 °FIce fog.3 mph92%30.39 "Hg3 mi
7:00 pm3 °FIce fog.1 mph100%30.39 "Hg3 mi
6:30 pm5 °FIce fog.3 mph92%30.39 "Hg2 mi
6:00 pm3 °FIce fog.6 mph100%30.39 "Hg1 mi
5:30 pm1 °FClear.1 mph92%30.39 "Hg4 mi
5:00 pm3 °FClear.3 mph92%30.39 "Hg4 mi
4:30 pm5 °FClear.6 mph92%30.39 "Hg4 mi
4:00 pm5 °FClear.6 mph92%30.39 "Hg4 mi
3:30 pm7 °FClear.6 mph92%30.39 "Hg4 mi
3:00 pm7 °FClear.8 mph100%30.39 "Hg4 mi
2:30 pm9 °FClear.6 mph100%30.36 "Hg4 mi
2:00 pm10 °FClear.6 mph92%30.36 "Hg4 mi
1:30 pm10 °FLight snow. Clear.6 mph100%30.36 "Hg4 mi
1:00 pm12 °FLight snow. Clear.6 mph92%30.39 "Hg4 mi
12:30 pm12 °FLight snow. Scattered clouds.6 mph92%30.36 "Hg3 mi
12:00 pm12 °FLight snow. Scattered clouds.6 mph92%30.36 "Hg2 mi
11:30 am12 °FLight snow. Scattered clouds.6 mph92%30.36 "Hg2 mi
11:00 am10 °FLight snow. Scattered clouds.6 mph100%30.36 "Hg2 mi
10:30 am10 °FLight snow. Scattered clouds.8 mph100%30.36 "Hg3 mi
10:00 am10 °FLight snow. Scattered clouds.8 mph92%30.36 "Hg3 mi
9:30 am10 °FLight snow. Scattered clouds.8 mph92%30.36 "Hg3 mi
9:00 am10 °FLight snow. Scattered clouds.6 mph92%30.36 "Hg3 mi
Weather by CustomWeather, © 2017

See weather overviewHow to use our weather pages